Flag for Canada Weather past 2 weeks in Saskatoon, Saskatchewan, Canada

Now
63 °F

Partly sunny.


Feels Like: 63 °F
Forecast: 57 / 88 °F
Wind: 13 mph from Southeast

Location: Saskatoon Weather Station

Current Time: Jul 23, 2014 at 7:59:35 AM

Latest Report: Jul 23, 2014 at 7:00 AM


Visibility: 15 mi

Pressure: 30.24 "Hg

Humidity: 77%

Dew point: 55 °F

Location of SaskatoonLocation

Historic Weather in Saskatoon — Graph

°F

Saskatoon temperature yesterday

Maximum temperature yesterday: 77 °F (at 5:00 PM)
Minimum temperature yesterday: 50 °F (at 5:00 AM)
Average temperature yesterday: 64 °F

Past Weeks' High & Low Weather Summary

 TemperatureHumidityPressure
High82 °F (Jul 9, 3:00 PM)100% (Jul 14, 4:00 AM)30.44 "Hg (Jul 14, 4:00 AM)
Low43 °F (Jul 13, 5:00 AM)36% (Jul 10, 5:00 PM)29.50 "Hg (Jul 17, 10:00 PM)
Average65 °F70%29.96 "Hg
* Reported Jul 8 7:00 AM — Jul 23 7:00 AM, Saskatoon, Weather by CustomWeather, © 2014

Note: Actual official high and low records may vary slightly from our data, if they occured in-between our weather recording intervals... More about our weather records

Advertising

Saskatoon weather history for previous 24 hours

 ConditionsComfort  
Time TempWeatherWind HumidityBarometerVisibility
7:00 AM
Jul 23
63 °FPartly sunny.13 mph77%30.24 "Hg15 mi
6:00 AM61 °FPartly sunny.9 mph83%30.25 "Hg10 mi
5:00 AM59 °FPartly cloudy.9 mph82%30.25 "Hg10 mi
4:00 AM59 °FPassing clouds.9 mph82%30.26 "Hg15 mi
3:00 AM63 °FPassing clouds.10 mph73%30.26 "Hg15 mi
11:00 PM
Jul 22
68 °FPartly cloudy.10 mph69%30.26 "Hg15 mi
10:00 PM68 °FPassing clouds.8 mph69%30.26 "Hg15 mi
9:00 PM70 °FPartly sunny.7 mph60%30.25 "Hg15 mi
8:00 PM72 °FBroken clouds.9 mph57%30.25 "Hg15 mi
7:00 PM77 °FBroken clouds.12 mph47%30.25 "Hg15 mi
6:00 PM75 °FBroken clouds.8 mph50%30.25 "Hg15 mi
5:00 PM77 °FBroken clouds.6 mph47%30.26 "Hg15 mi
11:00 AM73 °FScattered clouds.3 mph50%30.25 "Hg15 mi
10:00 AM70 °FPassing clouds.2 mph64%30.23 "Hg15 mi
9:00 AM66 °FPassing clouds.No wind73%30.22 "Hg15 mi
8:00 AM61 °FPassing clouds.No wind88%30.21 "Hg15 mi
7:00 AM55 °FSunny.3 mph100%30.20 "Hg10 mi
Weather by CustomWeather, © 2014

See weather overviewHow to use our weather pages